| time (UTC) | temp F | wind direction | speed knots | gust knots | rain 1hr in | rain 24hr in | rain mn in | humidity % | barometer mb |
| 20260504081520 | 41 | 242 | 0.0 | 0.0 | 0.00 | 0.00 | 0.00 | 72 | 1010.4 |
| 20260504044602 | 43 | 240 | 0.0 | 0.0 | 0.00 | 0.00 | 0.00 | 72 | 1010.6 |
| 20260504043056 | 42 | 240 | 0.0 | 0.0 | 0.00 | 0.00 | 0.00 | 72 | 1010.6 |
| 20260504041549 | 42 | 240 | 0.0 | 0.9 | 0.00 | 0.00 | 0.00 | 70 | 1010.6 |
| 20260504034606 | 42 | 233 | 0.0 | 0.0 | 0.00 | 0.00 | 0.00 | 72 | 1010.5 |
| 20260504033042 | 42 | 235 | 0.0 | 0.9 | 0.00 | 0.00 | 0.00 | 72 | 1010.2 |
| 20260504031542 | 42 | 245 | 0.0 | 0.0 | 0.00 | 0.00 | 0.00 | 71 | 1010.1 |
| 20260504030058 | 42 | 245 | 0.0 | 0.0 | 0.00 | 0.00 | 0.00 | 68 | 1010.1 |
| 20260504024541 | 43 | 245 | 0.0 | 0.0 | 0.00 | 0.00 | 0.00 | 66 | 1010.1 |
| 20260504023041 | 44 | 245 | 0.0 | 0.0 | 0.00 | 0.00 | 0.00 | 63 | 1010.2 |
| 20260504021541 | 44 | 245 | 0.0 | 0.0 | 0.00 | 0.00 | 0.00 | 60 | 1010.1 |
| 20260504020040 | 45 | 245 | 0.0 | 0.0 | 0.00 | 0.00 | 0.00 | 56 | 1009.9 |
| 20260504014539 | 46 | 245 | 0.0 | 0.0 | 0.00 | 0.00 | 0.00 | 53 | 1009.8 |
| 20260504013048 | 46 | 245 | 0.0 | 0.9 | 0.00 | 0.00 | 0.00 | 52 | 1009.7 |
| 20260504011540 | 47 | 234 | 0.0 | 0.0 | 0.00 | 0.00 | 0.00 | 47 | 1009.4 |
| 20260504010038 | 47 | 239 | 0.0 | 0.9 | 0.00 | 0.00 | 0.00 | 51 | 1009.3 |
| 20260504004537 | 48 | 239 | 0.0 | 0.0 | 0.00 | 0.00 | 0.00 | 46 | 1009.1 |
| 20260504003037 | 49 | 239 | 0.0 | 0.0 | 0.00 | 0.00 | 0.00 | 42 | 1008.9 |
| 20260504001541 | 51 | 239 | 0.0 | 0.0 | 0.00 | 0.00 | 0.00 | 34 | 1008.5 |
| 20260504000037 | 51 | 248 | 0.0 | 1.7 | 0.00 | 0.00 | 0.00 | 37 | 1008.4 |
| 20260503234535 | 51 | 158 | 0.0 | 1.7 | 0.00 | 0.00 | 0.00 | 35 | 1008.2 |
| 20260503233038 | 52 | 224 | 0.0 | 0.9 | 0.00 | 0.00 | 0.00 | 37 | 1008.2 |
| 20260503231535 | 52 | 245 | 0.9 | 3.5 | 0.00 | 0.00 | 0.00 | 37 | 1008.0 |
| 20260503230034 | 53 | 46 | 0.0 | 0.9 | 0.00 | 0.00 | 0.00 | 38 | 1008.1 |
| 20260503224533 | 54 | 208 | 0.0 | 1.7 | 0.00 | 0.00 | 0.00 | 37 | 1008.0 |
| 20260503223032 | 54 | 71 | 0.9 | 3.5 | 0.00 | 0.00 | 0.00 | 37 | 1008.0 |
| 20260503221531 | 54 | 352 | 0.9 | 4.3 | 0.00 | 0.00 | 0.00 | 36 | 1008.0 |
| 20260503220031 | 55 | 228 | 0.0 | 5.2 | 0.00 | 0.00 | 0.00 | 37 | 1008.0 |
| 20260503214531 | 55 | 29 | 0.9 | 6.1 | 0.00 | 0.00 | 0.00 | 37 | 1008.1 |
| 20260503213037 | 55 | 68 | 0.9 | 6.1 | 0.00 | 0.00 | 0.00 | 37 | 1008.1 |
| 20260503211534 | 55 | 248 | 0.9 | 5.2 | 0.00 | 0.00 | 0.00 | 38 | 1008.1 |
| 20260503210027 | 54 | 219 | 0.0 | 5.2 | 0.00 | 0.00 | 0.00 | 39 | 1007.9 |
| 20260503204531 | 54 | 236 | 0.9 | 5.2 | 0.00 | 0.00 | 0.00 | 37 | 1007.9 |
| 20260503203024 | 54 | 85 | 0.9 | 7.8 | 0.00 | 0.00 | 0.00 | 38 | 1007.8 |
| 20260503201524 | 53 | 47 | 0.0 | 7.8 | 0.00 | 0.00 | 0.00 | 39 | 1007.8 |
| 20260503200023 | 53 | 228 | 0.9 | 6.1 | 0.00 | 0.00 | 0.00 | 39 | 1007.8 |
| 20260503194522 | 53 | 226 | 0.0 | 5.2 | 0.00 | 0.00 | 0.00 | 41 | 1007.7 |
| 20260503193023 | 52 | 217 | 1.7 | 8.7 | 0.00 | 0.00 | 0.00 | 40 | 1007.8 |
| 20260503191521 | 52 | 229 | 0.9 | 8.7 | 0.00 | 0.00 | 0.00 | 39 | 1007.8 |
| 20260503190038 | 52 | 264 | 0.9 | 5.2 | 0.00 | 0.00 | 0.00 | 39 | 1007.9 |
| 20260503184519 | 52 | 235 | 0.0 | 5.2 | 0.00 | 0.00 | 0.00 | 41 | 1007.8 |
| 20260503183022 | 52 | 222 | 0.9 | 5.2 | 0.00 | 0.00 | 0.00 | 41 | 1007.8 |
| 20260503181518 | 52 | 211 | 0.0 | 6.1 | 0.00 | 0.00 | 0.00 | 45 | 1007.8 |
| 20260503180033 | 52 | 15 | 0.9 | 7.0 | 0.00 | 0.00 | 0.00 | 43 | 1008.0 |
| 20260503174517 | 54 | 248 | 2.6 | 6.1 | 0.00 | 0.00 | 0.00 | 41 | 1007.9 |
| 20260503173017 | 53 | 87 | 1.7 | 9.6 | 0.00 | 0.00 | 0.00 | 41 | 1007.7 |
| 20260503171530 | 53 | 242 | 0.9 | 8.7 | 0.00 | 0.00 | 0.00 | 44 | 1007.7 |